Regional Weather Roundup
Issued by NWS

Home | Current Version | Previous Version | Text Only | Print | Product List | Glossary Off
Versions: 1 2 3 4 5 6 7 8 9 10 11 12 13 14 15 16 17 18 19 20 21 22 23 24 25 26 27 28 29 30 31 32 33 34 35 36 37 38 39 40 41 42 43 44 45 46 47 48 49 50

000
ASUS43 KDMX 231306
RWRIA

WEATHER ROUNDUP FOR IOWA
NATIONAL WEATHER SERVICE DES MOINES IA
700 AM CST THU FEB 23 2017

NOTE: "FAIR" INDICATES FEW OR NO CLOUDS BELOW 12,000 FEET WITH NO
SIGNIFICANT WEATHER AND/OR OBSTRUCTIONS TO VISIBILITY.

* - THESE STATIONS ARE NOT NWS STATIONS...THUS NOT UNDER NWS
QUALITY CONTROL.  THEY ALSO DO NOT REPORT WEATHER SUCH
AS PRECIPITATION OR FOG.

IAZ001>003-012>014-020>022-031>034-043>046-231400-
   NORTHWEST IOWA

CITY           SKY/WX    TMP DP  RH WIND       PRES   REMARKS
CARROLL *      CLOUDY    36  36 100 NE15G21   29.82R WCI  26
CHEROKEE *     CLOUDY    34  32  93 NE13      29.84S WCI  25
DENISON *      CLOUDY    36  32  87 NE12G21   29.81R WCI  27
LE MARS *      CLOUDY    34  32  93 N13G22    29.86S WCI  25
ORANGE CITY *  CLOUDY    32  28  86 NE8       29.84F WCI  25
SHELDON *      CLOUDY    32  32 100 NE17G23   29.84S WCI  21
SIOUX CITY     CLOUDY    37  31  78 NE13      29.86R WCI  29
SPENCER        CLOUDY    32  29  88 N14       29.86S WCI  22
STORM LAKE *   CLOUDY    34  32  93 NE20G25   29.82S WCI  22
$$

IAZ055>058-069>071-079>083-090>094-231400-
   SOUTHWEST IOWA

CITY           SKY/WX    TMP DP  RH WIND       PRES   REMARKS
ATLANTIC *     CLOUDY    37  36  93 NE17      29.80F WCI  28
CLARINDA *     CLOUDY    39  39 100 NE12      29.80S WCI  32
COUNCIL BLFS * CLOUDY    36  36 100 NE14G22   29.80S WCI  27
CRESTON *      CLOUDY    37  37 100 NE14      29.78S WCI  29
HARLAN  *      CLOUDY    36  36 100 NE14      29.85R WCI  27
LAMONI         CLOUDY    39  37  92 NE17      29.77R WCI  30
RED OAK *      CLOUDY    37  36  93 NE12G20   29.80R WCI  30
SHENANDOAH *   CLOUDY    39  37  93 NE14      29.79S WCI  31
$$

IAZ047>049-059>061-072>074-084-231400-
   CENTRAL IOWA

CITY           SKY/WX    TMP DP  RH WIND       PRES   REMARKS
AMES           CLOUDY    39  36  89 NE13      29.80F WCI  31
ANKENY *       CLOUDY    37  36  93 NE10      29.82S WCI  30
BOONE *        CLOUDY    37  37 100 NE10G18   29.80R WCI  30
CHARITON *     CLOUDY    39  37  93 N14       29.78S WCI  31
DES MOINES     CLOUDY    39  36  89 NE12      29.80S WCI  32
GRINNELL*      CLOUDY    39  37  92 N9G18     29.80S WCI  32
KNOXVILLE *    CLOUDY    41  37  87 NE9G16    29.78R
MARSHALLTOWN   CLOUDY    38  37  97 N9        29.80S WCI  31
NEWTON *       CLOUDY    39  36  87 NE15      29.79S WCI  31
PELLA *        CLOUDY    40  37  89 N8        29.80R WCI  35
PERRY *        CLOUDY    37  35  92 NE10G17   29.82R WCI  30
$$

IAZ004>006-015-016-023>025-035-036-231400-
   NORTH CENTRAL IOWA

CITY           SKY/WX    TMP DP  RH WIND       PRES   REMARKS
ALGONA *       CLOUDY    34  34 100 N15       29.84F WCI  24
CLARION *      CLOUDY    36  36 100 N14       29.82F WCI  27
ESTHERVILLE    CLOUDY    30  30 100 N17       29.85R WCI  18
FORT DODGE *   CLOUDY    36  30  80 N12       29.82S WCI  27
MASON CITY     CLOUDY    36  32  85 N12       29.85R WCI  28
FOREST CITY *  CLOUDY    34  32  93 N10       29.84S WCI  26
WEBSTER CITY * CLOUDY    36  34  93 N14       29.79S WCI  27
IOWA FALLS *   CLOUDY    37  34  88 N14       29.81F WCI  29
$$

IAZ007>011-017>019-026>030-037>042-050>054-066-231400-
   NORTHEAST IOWA

CITY           SKY/WX    TMP DP  RH WIND       PRES   REMARKS
CEDAR RAPIDS   PTCLDY    40  37  89 N9        29.77F WCI  34
CHARLES CITY * CLOUDY    37  37 100 NE10      29.83S WCI  30
CLINTON *      PTCLDY    37  36  96 NW7       29.77S WCI  32
DECORAH *      CLOUDY    39  34  81 VRB5      29.82R
DUBUQUE        CLEAR     39  36  89 N12       29.77R WCI  32
MONTICELLO *   MOCLDY    41  37  87 N7        29.79R
OELWEIN *      CLOUDY    39  37  93 N12       29.81S WCI  32
WATERLOO       CLOUDY    39  35  86 N12       29.80F WCI  32
$$

IAZ064-065-067-068-078-231400-
   EAST CENTRAL IOWA

CITY           SKY/WX    TMP DP  RH WIND       PRES   REMARKS
DAVENPORT      CLEAR     40  37  89 N8        29.76F WCI  34
IOWA CITY      PTCLDY    44  37  76 N13       29.78F
MUSCATINE *    PTCLDY    41  37  87 N6        29.77S
QUAD CITIES    CLEAR     43  39  86 N3        29.76R
$$

IAZ062-063-075>077-085>089-095>099-231400-
   SOUTHEAST IOWA

CITY           SKY/WX    TMP DP  RH WIND       PRES   REMARKS
BURLINGTON     CLOUDY    43  41  93 N13       29.76R
FAIRFIELD *    CLOUDY    43  37  81 N13G20    29.77S
KEOKUK *       CLOUDY    43  41  93 N10       29.76R
CENTERVILLE *  CLOUDY    39  37  93 N5        29.78R
OTTUMWA        CLOUDY    42  39  89 N9        29.77F
WASHINGTON *   CLOUDY    43  39  87 N8G16     29.79R
$$

ABBREVIATIONS USED IN REMARKS
   TC - TEMPERATURES IN CELSIUS
  WCI - WIND CHILL INDEX
   HX - HEAT INDEX
  VSB - VISIBILITY
$$





USA.gov is the U.S. government's official web portal to all federal, state and local government web resources and services.